This is the latest recevied weather packets stored in our database for station/object WA7CUG. If no packets are shown the sender has not sent any weather packets the latest 10 day(s).
| Time | Temp. | Humidity | Pressure | Rain* | Wind** | Luminosity | Snow |
|---|---|---|---|---|---|---|---|
| 1778042488 | 21.11° C | 48% | 1010 hPa | 0 mm | - | 0 W/m² | - |
| 1778042185 | 21.67° C | 47% | 1010.1 hPa | 0 mm | - | 0 W/m² | - |
| 1778041884 | 21.67° C | 46% | 1009.9 hPa | 0 mm | - | 0 W/m² | - |
| 1778041582 | 21.67° C | 46% | 1009.6 hPa | 0 mm | - | 0 W/m² | - |
| 1778041280 | 21.67° C | 46% | 1009.7 hPa | 0 mm | - | 0 W/m² | - |
| 1778040979 | 21.67° C | 46% | 1009.6 hPa | 0 mm | - | 0 W/m² | - |
| 1778040675 | 21.67° C | 47% | 1009.8 hPa | 0 mm | - | 0 W/m² | - |
| 1778040373 | 22.22° C | 46% | 1009.6 hPa | 0 mm | - | 0 W/m² | - |
| 1778040069 | 24.44° C | 42% | 1009.3 hPa | 0 mm | - | 0 W/m² | - |
| 1778039766 | 25° C | 39% | 1009.3 hPa | 0 mm | - | 0 W/m² | - |
| 1778039462 | 25° C | 38% | 1009.1 hPa | 0 mm | - | 0 W/m² | - |
| 1778039160 | 25° C | 38% | 1009.3 hPa | 0 mm | - | 0 W/m² | - |
| 1778038856 | 25.56° C | 37% | 1009.3 hPa | 0 mm | - | 0 W/m² | - |
| 1778038554 | 25.56° C | 36% | 1009.3 hPa | 0 mm | - | 0 W/m² | - |
| 1778038251 | 25.56° C | 36% | 1009.2 hPa | 0 mm | - | 1 W/m² | - |
| 1778037948 | 25.56° C | 37% | 1009.2 hPa | 0 mm | - | 2 W/m² | - |
| 1778037645 | 25.56° C | 37% | 1009.2 hPa | 0 mm | - | 3 W/m² | - |
| 1778037342 | 25.56° C | 37% | 1009.3 hPa | 0 mm | - | 5 W/m² | - |
| 1778037039 | 25.56° C | 38% | 1009.2 hPa | 0 mm | - | 7 W/m² | - |
| 1778036738 | 25° C | 40% | 1009.2 hPa | 0 mm | - | 9 W/m² | - |
| 1778036434 | 23.33° C | 42% | 1009.1 hPa | 0 mm | - | 12 W/m² | - |
| 1778036131 | 23.89° C | 47% | 1009 hPa | 0 mm | - | 16 W/m² | - |
| 1778035827 | 23.89° C | 45% | 1009.1 hPa | 0 mm | - | 18 W/m² | - |
| 1778035524 | 23.89° C | 43% | 1009.1 hPa | 0 mm | - | 21 W/m² | - |
| 1778035221 | 25° C | 49% | 1009 hPa | 0 mm | - | 24 W/m² | - |
* Rain latest hour (hover to see other rain measurements)
** Current wind speed in m/s (hover to see current wind gust speed)